Wind_Speed
52 54 42 56 53 60 60 55 68 49 33 32 30 32 35 39 37 30 30 31 34 32 42 45 50 54 45 46 45 45 46 48 50 51 52 55 61 64 65 66 69 70 69
50 41 37 43 42 46 45 44 37 39 37 32 36 30 33 27 33 32 33 36 42 42 45 47 55 51 47 44 46 49 53 57 60 62 66 68 69 69 68 68 69 70 70
45 45 45 45 44 44 48 49 47 41 36 33 33 33 32 32 37 42 38 38 40 44 47 46 44 45 48 49 51 54 58 61 64 66 67 66 65 65 65 66 66 63 56
50 48 47 45 45 46 46 44 41 41 39 41 35 35 35 36 39 44 46 49 49 49 47 46 46 48 51 56 60 62 63 63 62 61 63 63 60 54 52 50 47 48 46
45 46 45 46 46 45 46 44 42 43 44 43 44 44 43 42 42 43 46 41 41 42 45 49 52 56 60 63 63 61 60 62 63 63 59 46 42 44 46 46 45 46 49
41 44 47 48 48 47 46 44 45 45 43 43 44 42 35 32 34 37 39 42 45 47 50 55 59 62 62 61 60 61 58 55 54 48 41 38 43 39 35 35 35 36 33
42 43 45 47 48 49 49 44 40 37 36 36 32 30 32 34 36 40 44 50 54 54 54 55 55 57 59 60 57 52 49 45 39 36 38 39 34 34 32 32 31 31 32
39 40 41 44 47 49 48 46 41 36 33 33 33 35 38 40 44 49 51 51 52 54 55 57 58 57 51 48 45 44 42 40 39 37 37 39 40 38 34 32 32 32 33
36 37 41 44 45 42 41 40 39 38 35 37 39 41 43 46 47 47 48 50 53 56 55 53 47 41 40 39 39 38 37 35 34 36 35 34 33 32 31 34 34 33 32
39 37 38 39 35 31 36 38 40 39 39 41 42 43 44 42 43 45 47 48 47 46 46 43 39 36 35 35 33 32 29 28 29 31 31 30 29 28 27 28 29 28 28
41 41 39 32 33 40 38 33 32 32 33 38 40 38 40 41 39 38 39 39 38 37 34 31 28 26 25 24 24 24 26 27 28 29 29 29 30 30 29 28 28 27 26
39 35 39 31 32 30 32 30 34 34 34 34 34 34 32 29 30 33 34 32 30 26 23 21 21 20 21 23 25 27 30 31 32 32 32 31 29 29 29 27 25 23 21
28 33 30 29 23 25 29 31 29 29 32 32 29 23 23 27 30 28 26 25 24 23 22 21 21 21 23 25 28 31 33 36 36 35 32 29 26 25 22 19 18 16 17
24 24 19 20 23 24 24 27 29 29 27 20 17 20 22 23 26 27 28 24 21 21 19 20 20 22 25 28 32 34 32 28 25 21 19 17 16 16 16 15 16 15 13
13 14 19 22 24 24 26 27 25 17 13 15 18 18 20 22 25 24 22 22 23 22 20 21 24 26 28 31 29 25 24 22 21 23 24 26 27 24 22 21 19 17 16
18 17 19 22 26 26 21 13 10 9 12 14 17 19 21 21 19 19 21 21 21 19 19 22 25 26 27 25 21 20 19 18 22 26 31 36 32 25 21 17 14 13 11
15 18 21 20 20 11 8 6 6 11 11 15 18 21 21 18 18 18 18 20 21 19 19 22 24 26 26 20 18 17 16 16 20 27 32 37 35 29 28 21 12 10 7
17 16 13 11 10 6 6 8 10 9 9 14 17 20 21 20 19 18 18 17 17 18 19 20 22 23 24 19 18 17 16 14 18 22 27 36 39 31 27 23 16 10 11
12 12 12 9 8 9 9 9 10 11 11 16 20 21 18 19 20 19 18 17 18 19 20 20 19 22 22 20 16 16 17 14 15 20 24 29 33 33 27 24 20 17 13
14 11 8 7 8 9 8 8 11 14 16 18 19 16 15 16 18 19 19 18 18 18 18 20 19 20 22 21 19 16 16 17 17 19 22 25 27 30 27 24 22 20 18
11 12 9 9 9 10 11 13 14 14 13 13 12 13 14 15 16 16 17 17 17 17 18 19 19 20 21 22 21 20 18 17 17 17 19 20 22 24 27 24 20 20 17
12 15 17 16 17 17 17 17 17 16 17 18 18 17 17 17 16 17 17 17 17 18 18 19 20 20 20 22 23 23 22 21 19 17 16 16 18 19 20 22 23 17 15
8 10 13 13 14 14 15 15 15 16 15 15 15 16 16 17 17 18 18 19 20 21 21 21 20 19 20 22 22 23 24 23 21 22 20 16 14 15 16 17 18 22 18
6 8 9 9 10 11 12 12 11 11 12 13 14 15 16 17 17 17 17 18 19 20 21 22 22 23 23 23 21 22 23 22 23 23 22 21 17 14 13 14 15 16 19
3 5 6 7 9 11 11 10 10 11 11 12 13 14 15 15 16 18 19 19 19 19 19 20 21 22 23 23 24 23 21 21 22 21 22 22 20 20 18 14 13 14 14
6 8 9 10 10 11 11 9 9 10 10 10 11 13 14 16 18 19 20 21 21 21 21 21 21 21 21 22 22 23 23 23 22 21 22 21 22 21 18 18 16 13 13
Wind_Direction
296 293 287 268 265 268 260 293 257 297 332 309 302 306 302 303 298 297 296 287 289 299 294 288 288 298 293 283 290 283 279 281 284 287 285 283 284 286 285 281 279 277 276
300 295 286 290 298 303 316 320 314 315 319 325 313 309 311 296 291 299 301 284 302 284 290 283 290 295 290 292 293 290 285 282 283 287 288 288 287 285 283 282 281 280 279
299 297 294 296 303 310 315 315 318 319 320 317 310 303 307 293 288 299 301 296 290 289 293 293 291 287 289 292 289 291 291 290 289 288 288 288 287 286 284 281 281 280 280
298 299 302 307 309 309 308 308 308 307 307 303 303 294 293 285 282 289 295 298 298 294 291 292 292 291 291 293 295 295 294 294 295 294 293 292 291 291 288 288 286 282 278
294 300 304 306 307 307 307 306 305 301 302 298 293 293 293 287 289 291 294 294 290 289 292 291 290 291 292 294 295 296 298 298 296 295 295 298 296 294 292 288 285 282 278
296 299 302 303 303 302 302 301 301 303 304 299 297 299 303 301 298 296 295 297 296 292 292 294 294 294 296 296 298 300 299 298 298 299 296 295 298 298 297 289 284 281 283
291 293 295 296 297 299 302 309 310 309 305 297 295 296 300 301 300 300 299 297 297 297 296 297 298 300 302 304 302 301 301 301 302 300 297 293 288 296 295 295 295 295 294
290 292 293 295 297 301 307 310 311 310 301 297 300 305 306 305 302 300 300 302 301 301 301 302 302 302 304 304 305 306 305 302 298 297 293 291 291 290 287 288 292 293 291
288 286 287 294 296 301 307 308 310 307 300 296 299 296 297 298 301 302 302 302 301 301 301 300 303 304 304 307 304 302 302 300 302 301 302 303 299 295 290 290 293 290 285
286 285 287 288 290 307 310 306 305 301 299 296 300 302 302 305 305 304 303 302 302 303 303 303 299 301 303 299 303 306 306 311 308 308 310 310 307 305 301 296 291 288 284
291 291 291 290 278 301 304 300 299 299 302 303 303 306 308 310 311 312 315 317 318 317 315 309 306 308 313 321 322 321 320 315 316 315 312 309 307 305 302 297 292 288 280
302 281 281 280 291 309 300 304 309 305 303 304 308 312 314 318 322 325 328 329 333 338 341 340 339 336 334 329 331 332 325 320 317 314 311 310 309 306 305 305 301 298 291
272 263 261 293 300 297 297 293 301 306 307 311 317 323 326 328 332 332 340 349 353 350 343 341 338 343 342 340 337 331 325 322 318 312 309 310 311 312 313 314 317 314 303
268 274 283 293 292 302 310 314 317 315 315 322 326 330 332 334 341 345 348 343 345 347 347 349 350 351 347 345 343 340 346 353 356 355 351 351 348 338 329 320 319 313 307
313 325 307 302 304 307 314 317 314 318 328 335 337 341 347 349 353 348 349 348 348 349 358 0 358 356 353 350 355 9 18 29 29 26 20 10 356 339 322 309 302 304 312
306 307 304 306 308 312 312 310 325 336 336 342 348 351 356 353 346 347 349 352 349 353 358 2 359 357 357 359 10 20 23 29 28 18 15 7 4 360 348 332 309 306 308
300 301 302 310 311 325 330 335 336 338 343 350 359 358 349 345 348 353 352 355 353 355 358 356 356 359 359 1 10 12 16 22 21 20 19 17 14 17 17 12 357 334 325
315 324 333 338 344 348 346 338 336 340 344 347 347 349 346 350 350 353 356 358 356 357 358 354 354 358 2 3 4 7 6 6 11 11 13 15 17 16 13 11 2 359 360
338 337 341 352 360 347 336 342 346 340 335 336 338 341 346 354 357 357 357 359 358 356 355 352 353 1 6 5 1 5 9 3 360 2 4 9 16 18 18 20 11 3 9
357 357 3 357 353 347 341 338 338 331 327 327 330 336 344 351 356 2 4 3 360 357 356 360 4 5 8 10 3 354 352 354 1 359 355 2 13 21 21 25 30 38 44
28 30 12 350 339 331 328 329 333 339 347 359 360 352 350 349 351 355 359 3 5 8 7 8 7 9 9 11 10 8 359 354 354 1 2 4 10 17 24 22 27 34 34
54 61 61 57 54 54 57 59 57 53 49 46 41 37 32 28 24 21 19 13 9 7 7 8 10 10 7 8 11 12 10 10 2 353 353 360 6 13 17 25 23 22 23
57 59 62 59 56 54 53 53 49 46 41 38 34 31 27 26 25 25 25 25 25 24 24 21 15 11 10 11 10 8 12 13 11 11 7 1 356 5 11 14 19 20 18
63 61 62 57 46 37 28 22 22 22 23 18 15 15 14 14 12 12 14 15 15 16 17 19 19 19 19 17 13 11 13 12 14 14 12 16 11 356 353 6 7 16 21
16 15 5 1 5 3 356 353 360 7 9 8 11 12 10 10 11 13 14 12 11 9 9 10 11 12 14 16 17 17 15 14 16 15 17 17 18 18 10 4 358 359 12
326 325 320 326 338 339 338 345 359 9 15 23 26 23 21 20 17 16 15 14 14 13 11 10 8 6 6 7 10 12 13 15 15 14 16 17 18 19 17 20 18 8 3
Height
5823 5819 5815 5808 5809 5807 5801 5784 5782 5782 5785 5788 5786 5782 5780 5778 5776 5777 5771 5768 5766 5766 5762 5759 5755 5750 5746 5744 5738 5735 5733 5730 5728 5726 5722 5717 5713 5709 5705 5703 5700 5697 5696
5813 5811 5810 5806 5803 5791 5786 5785 5778 5782 5782 5782 5778 5775 5771 5768 5768 5766 5764 5760 5757 5754 5750 5746 5741 5736 5732 5727 5722 5721 5719 5716 5713 5707 5703 5699 5694 5690 5686 5682 5677 5675 5673
5807 5804 5802 5798 5792 5787 5781 5781 5777 5776 5777 5774 5769 5766 5761 5759 5759 5757 5753 5750 5747 5743 5739 5733 5729 5724 5719 5715 5714 5708 5704 5699 5694 5690 5685 5679 5675 5670 5666 5658 5655 5651 5648
5798 5795 5791 5788 5784 5782 5781 5779 5777 5773 5769 5763 5758 5756 5754 5751 5749 5745 5742 5738 5734 5730 5726 5720 5715 5711 5707 5703 5698 5693 5688 5682 5677 5671 5666 5661 5654 5647 5644 5641 5638 5635 5633
5792 5786 5783 5778 5777 5776 5772 5768 5765 5763 5758 5753 5749 5746 5743 5740 5736 5734 5731 5727 5724 5718 5714 5710 5706 5701 5696 5689 5684 5677 5672 5666 5660 5655 5647 5641 5635 5632 5629 5626 5625 5622 5620
5785 5780 5775 5771 5768 5766 5763 5761 5758 5753 5748 5744 5740 5736 5732 5729 5726 5724 5721 5717 5713 5707 5700 5695 5690 5685 5679 5673 5667 5660 5653 5647 5640 5634 5629 5627 5623 5618 5614 5611 5609 5607 5607
5781 5776 5771 5766 5762 5758 5754 5750 5748 5745 5740 5736 5732 5728 5724 5721 5718 5714 5710 5705 5700 5693 5686 5680 5676 5669 5662 5655 5649 5643 5637 5631 5625 5623 5619 5615 5612 5609 5605 5602 5600 5596 5593
5774 5769 5764 5759 5754 5749 5745 5739 5734 5731 5727 5724 5721 5717 5714 5710 5707 5703 5698 5691 5685 5680 5673 5667 5661 5654 5648 5642 5636 5631 5625 5621 5617 5613 5609 5605 5601 5597 5595 5592 5589 5586 5584
5765 5762 5757 5752 5746 5742 5737 5732 5728 5725 5720 5717 5715 5711 5707 5702 5697 5691 5685 5680 5674 5668 5661 5655 5649 5642 5637 5632 5626 5622 5618 5613 5606 5603 5597 5592 5589 5586 5584 5581 5577 5576 5574
5753 5750 5746 5742 5739 5736 5732 5727 5722 5718 5715 5711 5707 5703 5698 5694 5689 5682 5676 5669 5663 5657 5649 5641 5637 5633 5629 5625 5620 5614 5609 5602 5599 5593 5587 5583 5580 5577 5574 5571 5568 5566 5564
5743 5741 5738 5735 5732 5729 5724 5719 5715 5711 5709 5705 5701 5696 5692 5686 5679 5672 5665 5659 5651 5644 5638 5633 5629 5626 5621 5616 5612 5607 5602 5598 5592 5586 5581 5577 5572 5567 5565 5562 5559 5557 5555
5729 5728 5727 5727 5724 5718 5715 5712 5709 5706 5702 5698 5694 5689 5683 5677 5671 5664 5658 5651 5645 5639 5633 5628 5624 5621 5616 5613 5607 5601 5596 5591 5584 5579 5573 5569 5565 5561 5557 5553 5550 5548 5546
5721 5720 5719 5716 5714 5710 5709 5706 5702 5699 5696 5692 5686 5681 5676 5671 5666 5661 5655 5648 5642 5637 5633 5629 5624 5618 5614 5609 5603 5598 5592 5585 5577 5570 5565 5562 5558 5554 5550 5547 5545 5542 5540
5715 5713 5710 5708 5708 5704 5701 5699 5694 5691 5688 5684 5680 5677 5673 5668 5662 5655 5650 5647 5642 5637 5633 5628 5623 5618 5613 5607 5600 5593 5586 5580 5573 5567 5562 5558 5554 5550 5547 5543 5540 5538 5535
5710 5707 5706 5704 5702 5698 5695 5691 5689 5687 5684 5681 5678 5675 5670 5664 5658 5654 5652 5645 5640 5636 5632 5627 5622 5616 5611 5604 5597 5592 5587 5581 5575 5570 5565 5559 5553 5546 5541 5537 5535 5533 5531
5706 5704 5702 5699 5695 5694 5691 5688 5687 5685 5683 5680 5676 5671 5666 5663 5660 5655 5650 5645 5640 5635 5631 5627 5622 5617 5611 5605 5600 5594 5588 5583 5579 5573 5567 5559 5550 5542 5535 5531 5529 5529 5527
5705 5702 5699 5694 5693 5690 5687 5687 5685 5683 5680 5677 5673 5670 5667 5664 5659 5654 5649 5644 5639 5635 5631 5627 5622 5617 5611 5606 5601 5595 5591 5586 5582 5576 5569 5561 5552 5544 5538 5533 5530 5528 5526
5699 5695 5693 5691 5690 5688 5686 5685 5683 5681 5678 5675 5673 5670 5666 5662 5657 5652 5648 5644 5640 5636 5631 5627 5623 5618 5612 5605 5601 5596 5592 5588 5583 5578 5572 5564 5556 5547 5542 5537 5532 5530 5527
5696 5693 5691 5689 5687 5686 5685 5683 5681 5679 5676 5674 5671 5668 5665 5660 5656 5651 5647 5644 5639 5635 5631 5627 5623 5618 5612 5606 5602 5597 5593 5589 5585 5579 5574 5568 5561 5552 5546 5540 5536 5533 5529
5694 5692 5690 5688 5688 5687 5685 5683 5681 5678 5675 5673 5670 5667 5663 5659 5655 5651 5647 5643 5639 5636 5632 5627 5622 5618 5613 5608 5603 5598 5594 5590 5585 5580 5575 5570 5565 5558 5551 5546 5541 5537 5534
5695 5691 5689 5688 5687 5686 5684 5681 5678 5676 5673 5671 5668 5665 5662 5659 5655 5652 5648 5644 5641 5636 5632 5627 5623 5619 5614 5609 5604 5599 5594 5590 5586 5582 5577 5572 5567 5562 5556 5551 5546 5543 5540
5696 5693 5691 5690 5688 5686 5683 5681 5680 5677 5675 5672 5669 5667 5664 5660 5657 5653 5649 5645 5641 5637 5633 5628 5624 5620 5615 5610 5605 5600 5595 5590 5586 5581 5577 5573 5569 5564 5560 5555 5551 5547 5544
5697 5696 5693 5692 5691 5689 5687 5684 5682 5679 5677 5675 5672 5669 5666 5663 5659 5655 5651 5647 5643 5639 5634 5629 5625 5621 5617 5612 5607 5602 5597 5592 5587 5582 5578 5573 5570 5566 5562 5558 5555 5550 5546
5698 5697 5696 5694 5693 5691 5689 5687 5684 5682 5679 5677 5674 5671 5667 5664 5660 5656 5652 5649 5645 5640 5636 5632 5627 5623 5618 5613 5608 5604 5599 5594 5589 5584 5579 5575 5570 5567 5564 5560 5557 5554 5551
5699 5698 5697 5695 5693 5691 5690 5688 5685 5682 5679 5677 5674 5671 5668 5664 5661 5657 5653 5649 5645 5641 5637 5633 5629 5624 5620 5615 5610 5605 5600 5596 5591 5586 5582 5577 5572 5568 5564 5561 5558 5556 5554
5699 5698 5696 5694 5692 5692 5690 5687 5684 5681 5679 5677 5674 5672 5669 5665 5662 5658 5654 5651 5647 5643 5638 5634 5629 5625 5620 5616 5612 5607 5602 5597 5593 5588 5583 5579 5575 5571 5567 5563 5560 5557 5555